Regional Weather Roundup
Issued by NWS

Home | Current Version | Previous Version | Graphics & Text | Print | Product List | Glossary On
Versions: 1 2 3 4 5 6 7 8 9 10 11 12 13 14 15 16 17 18 19 20 21 22 23 24 25 26 27 28 29 30 31 32 33 34 35 36 37 38 39 40 41 42 43 44 45
000
ASUS45 KBOU 241110
RWRCO

WEATHER ROUNDUP FOR COLORADO
NATIONAL WEATHER SERVICE DENVER/BOULDER CO
400 AM MST SAT FEB 24 2018

NOTE: "FAIR" INDICATES FEW OR NO CLOUDS BELOW 12000 FEET WITH NO
SIGNIFICANT WEATHER AND/OR OBSTRUCTIONS TO VISIBILITY.

COZ001>005-013-030-031-241200-
...NORTHWEST COLORADO...

CITY           SKY/WX    TMP DP  RH WIND       PRES   REMARKS
CRAIG          CLOUDY    13   9  84 W5        29.94F WCI   5
HAYDEN         LGT SNOW  13   9  84 W9        29.93S FOG     WCI   1
MEEKER         CLOUDY    17   7  64 CALM      29.94S
RANGELY        PTSUNNY   15  11  84 CALM      30.01S
RABBIT EARS PA HVY SNOW   1  -4  78 MISG      29.69F VSB 1/4
STEAMBOAT SPGS CLOUDY    13  10  90 S7        29.88S WCI   2
WALDEN         FAIR       7   0  72 SW3       29.77S
$$

COZ006>008-011-241200-
...WEST CENTRAL VALLEYS...

CITY           SKY/WX    TMP DP  RH WIND       PRES   REMARKS
GRAND JUNCTION FAIR      22  15  75 NW9       30.01R WCI  12
MONTROSE       CLOUDY    21  13  71 NW3       29.99R
EAGLE          MOCLDY    21  11  65 NW5       29.89R WCI  15
RIFLE          CLOUDY    23  11  60 NW16      29.96R WCI  10
DELTA          FAIR      27  15  62 W13       29.98R WCI  16
NUCLA          MOCLDY    16  14  93 CALM      30.02S
$$

COZ017>023-064>068-241200-
...SOUTHWEST COLORADO...

CITY           SKY/WX    TMP DP  RH WIND       PRES   REMARKS
DURANGO        FAIR      16  13  88 SW3       29.89F
CORTEZ         MOCLDY    15  11  83 CALM      30.00R
PAGOSA SPRINGS CLOUDY    19  16  89 SW6       29.85F WCI  11
TELLURIDE      LGT SNOW  12  10  91 W5        29.86F WCI   4
WOLF CREEK PAS CLOUDY     1   0  92 SW12G20   29.74S WCI -15
$$

COZ009-010-012-014-032>034-037-058>063-241200-
...CENTRAL COLORADO...

CITY           SKY/WX    TMP DP  RH WIND       PRES   REMARKS
ASPEN          CLOUDY    15  11  83 CALM      29.81F
BUENA VISTA    FAIR      17   2  54 N7        29.76S WCI   7
COPPER MTN     LGT SNOW   5  -2  72 W15G26    29.63F WCI -13
BERTHOUD PASS  CLOUDY    -6 -15  65 NW29      29.55F WCI -33
COTTONWOOD PAS CLOUDY    18   7  62 W20G29    29.69F HAZE    WCI   1
GUNNISON       FAIR      16  10  77 SW10      29.83R WCI   4
GRANBY         PTSUNNY   12   2  65 W12       29.78S WCI  -2
KREMMLING      MOCLDY    21   5  49 NW8       29.84R WCI  12
LEADVILLE      FAIR       5  -1  76 NW13G22   29.70S WCI -12
MONARCH PASS   CLOUDY     1  -4  78 W25G32    29.75S WCI -22
SALIDA         FAIR      22   7  52 W13G18    29.84R WCI  10
SUNLIGHT       CLOUDY   N/A N/A N/A W12G18    29.77F
WILKERSON PASS FAIR       3   0  85 NW10G18   29.66S WCI -12
$$

COZ069>075-241200-
...SAN LUIS VALLEY/SANGRE DE CRISTO MOUNTAINS...

CITY           SKY/WX    TMP DP  RH WIND       PRES   REMARKS
ALAMOSA        FAIR      16   7  67 SW18      29.78R WCI   0
DEL NORTE      LGT SNOW  17  11  78 NW14      29.80R WCI   2
LA VETA PASS   FAIR      10   5  79 SW13G33   29.77R WCI  -5
SAGUACHE       FAIR      18   5  57 NW18      29.79R WCI   2
$$

COZ035-036-038>040-241200-
...NORTHERN COLORADO FRONT RANGE...

CITY           SKY/WX    TMP DP  RH WIND       PRES   REMARKS
DENVER INTL AP CLOUDY    23  21  92 W7        29.79S FOG     WCI  15
AURORA         CLOUDY    23  22  99 NW7       29.79S WCI  14
FRONT RANGE AP CLOUDY    25  24  94 NW8       29.79F FOG     WCI  17
ERIE MUNI ARPT CLOUDY    24  22  93 S3        29.86S
BOULDER MUN AP CLOUDY    25  23  93 CALM      29.79F FOG
CENTENNIAL     CLOUDY    24  20  84 NW6       29.77F FOG     WCI  17
BROOMFIELD     NOT AVBL
FORT COLLINS   FAIR      20  18  92 CALM      29.80F
LONGMONT       CLOUDY    26  23  87 CALM      29.82F
$$

COZ041-046-047-076>085-087-088-241200-
...PIKES PEAK/PALMER DIVIDE AND SOUTHERN FOOTHILLS...

CITY           SKY/WX    TMP DP  RH WIND       PRES   REMARKS
COLO. SPRINGS  FOG       22  21  96 CALM      29.77F VSB 1/4
A. F. ACADEMY  CLOUDY    20  20  96 S5        29.74F WCI  14
SCHRIEVER AFB  NOT AVBL
CHEYENNE MTN     N/A     19  18  97 CALM      29.67F
ELLICOTT       CLOUDY   N/A N/A N/A SW7       29.75F
FALCON         CLOUDY    20  19  96 SW3       29.74F FOG
FORT CARSON    CLOUDY    23  21  93 CALM      29.76F FOG
LIMON          CLOUDY    22  21  96 SW5       29.77F WCI  16
MONUMENT HILL  CLOUDY    19  18  93 W6        29.74F WCI  11
CANON CITY     CLOUDY    27  25  93 MISG      29.79S
WALSENBURG     NOT AVBL
TRINIDAD       FAIR      21  19  92 SE6       29.78F FOG     WCI  13
$$

COZ042>045-048>051-090-091-241200-
...NORTHEAST COLORADO...

CITY           SKY/WX    TMP DP  RH WIND       PRES   REMARKS
GREELEY ARPT   FAIR      19  17  92 CALM      29.82F
AKRON          CLOUDY    22  21  96 SE8       29.78S WCI  12
BURLINGTON     CLOUDY    24  23  96 S10       29.84F WCI  14
WRAY           LGT SNOW  25  25 100 SE5       29.85S WCI  19
YUMA           NOT AVBL
STERLING       CLOUDY    27  23  86 E3        29.81F
HOLYOKE        LGT SNOW  25  21  86 E5        29.85F WCI  19
FORT MORGAN    CLOUDY    26  22  87 CALM      29.80F
$$

COZ086-089-092>099-241200-
...SOUTHEAST COLORADO...

CITY           SKY/WX    TMP DP  RH WIND       PRES   REMARKS
PUEBLO         LGT SNOW  26  24  92 SE3       29.82F FOG
LA JUNTA       CLOUDY    27  25  92 E6        29.82F FOG     WCI  20
LAMAR          CLOUDY    26  23  88 E5        29.84F WCI  20
SPRINGFIELD      N/A     25  25 100 CALM      29.83S
$$




USA.gov is the U.S. government's official web portal to all federal, state and local government web resources and services.